User: anonymous   Login
Location: San Gennaro Vesuviano
(40.8833°N, 14.5333°E)
Time: 13:02:57
(UTC+00:00)
Language:

Meteor 2-3 Rocket - Orbit

View from above orbital plane
View from above orbital plane
View from above satellite
View from above satellite

Ground track
Ground track

The orbit data is extracted from the following two-line orbital elements,

1 10515U 77117B   21173.82753602 -.00000132  00000-0 -83787-4 0  9997
2 10515  81.2459 293.6983 0031556  62.8012 297.6368 14.08730182236031
Epoch (UTC): 22 June 2021 19:51:39
Eccentricity: 0.0031556
inclination: 81.2459°
perigee height: 841 km
apogee height: 886 km
right ascension of ascending node: 293.6983°
argument of perigee: 62.8012°
revolutions per day: 14.08730182
mean anomaly at epoch: 297.6368°
orbit number at epoch: 23603

The dashed part of the orbit path shows where the satellite is in the earth's shadow,  

DLR